Weather History for Price, UT

Change the Weather History Date:

Monday, October 3, 2011

  Actual Average Record
Temperature  
Mean Temperature 63 °F -  
Max Temperature 75 °F 68 °F 84 °F (1979)
Min Temperature 51 °F 41 °F 31 °F (1971)
Degree Days  
Heating Degree Days 2    
Growing Degree Days 13 (Base 50)    
Moisture  
Dew Point 42 °F    
Average Humidity 48    
Maximum Humidity 64    
Minimum Humidity 28    
Precipitation  
Precipitation 0.01 in - - ()
Sea Level Pressure  
Sea Level Pressure 30.04 in    
Wind  
Wind Speed 4 mph (ENE)    
Max Wind Speed 12 mph    
Max Gust Speed 18 mph    
Visibility 10 miles    
Events Rain , Thunderstorm    
Averages and records for this station are not official NWS values.
T = Trace of Precipitation, MM = Missing Value Source: NWS Daily Summary

Daily Weather History Graph

Daily Weather History Graph

Search for Another Location

Airport:

Trip Planner

Search our weather history database for the weather conditions in past years. The results will help you decide how hot, cold, wet, or windy it might be!

Date:

Astronomy

Oct. 03, 2011 Rise Set
Actual Time 7:20 AM MDT 7:02 PM MDT
Civil Twilight 6:54 AM MDT 7:29 PM MDT
Nautical Twilight 6:22 AM MDT 8:00 PM MDT
Astronomical Twilight 5:51 AM MDT 8:31 PM MDT
Moon 2:20 PM MDT (10/3) No Moon Set
Length of Visible Light 12h 35m
Length of Day
11h 41m
Waxing Crescent, 46% of the Moon is Illuminated
Oct 3
Waxing Crescent
Oct 3
First Quarter
Oct 11
Full
Oct 19
Last Quarter
Oct 26
New

Hourly Weather History & Observations

Time (MDT) Temp. Dew Point Humidity Pressure Visibility Wind Dir Wind Speed Gust Speed Precip Events Conditions
1:53 AM 55.0 °F 37.0 °F 51% 30.06 in 10.0 mi Calm Calm - N/A   Clear
2:53 AM 55.9 °F 37.9 °F 51% 30.05 in 10.0 mi North 3.5 mph - N/A   Clear
3:53 AM 53.1 °F 37.9 °F 57% 30.04 in 10.0 mi NE 5.8 mph - N/A   Clear
4:53 AM 53.6 °F 37.4 °F 54% 30.22 in 10.0 mi NE 4.6 mph - N/A   Clear
5:53 AM 51.1 °F 37.9 °F 61% 30.08 in 10.0 mi Calm Calm - N/A   Clear
6:53 AM 51.1 °F 39.0 °F 63% 30.09 in 10.0 mi NE 5.8 mph - N/A   Clear
7:53 AM 54.0 °F 39.0 °F 57% 30.11 in 10.0 mi NE 3.5 mph - N/A   Clear
8:53 AM 57.0 °F 39.0 °F 51% 30.11 in 10.0 mi Calm Calm - N/A   Clear
9:53 AM 62.1 °F 39.9 °F 44% 30.11 in 10.0 mi Calm Calm - N/A   Scattered Clouds
10:53 AM 66.9 °F 39.9 °F 37% 30.10 in 10.0 mi Calm Calm - N/A   Overcast
11:53 AM 69.1 °F 41.0 °F 36% 30.09 in 10.0 mi SSE 8.1 mph - N/A   Overcast
12:53 PM 68.0 °F 43.0 °F 40% 30.06 in 10.0 mi ESE 3.5 mph - 0.00 in Rain Light Rain
1:53 PM 72.0 °F 41.0 °F 33% 30.01 in 10.0 mi South 8.1 mph - 0.00 in   Clear
2:53 PM 75.0 °F 41.0 °F 29% 29.96 in 10.0 mi Variable 4.6 mph - N/A   Clear
3:53 PM 75.0 °F 39.9 °F 28% 29.95 in 10.0 mi Variable 6.9 mph - N/A   Clear
4:53 PM 73.9 °F 39.9 °F 29% 29.93 in 10.0 mi SE 8.1 mph - N/A   Mostly Cloudy
5:53 PM 71.1 °F 39.9 °F 32% 29.94 in 10.0 mi SSE 8.1 mph - N/A   Clear
6:53 PM 69.8 °F 41.0 °F 35% 30.09 in 10.0 mi East 4.6 mph - N/A   Overcast
7:26 PM 66.2 °F 41.0 °F 40% 30.09 in 10.0 mi NNE 3.5 mph - N/A Thunderstorm Mostly Cloudy
7:53 PM 62.1 °F 46.0 °F 56% 29.98 in 8.0 mi Calm Calm - 0.01 in Rain , Thunderstorm Light Thunderstorms and Rain
8:07 PM 60.8 °F 48.2 °F 63% 30.10 in 10.0 mi North 5.8 mph - 0.00 in   Overcast
8:53 PM 60.1 °F 48.0 °F 64% 29.96 in 10.0 mi NNE 9.2 mph - 0.00 in   Scattered Clouds
9:53 PM 60.1 °F 45.0 °F 57% 29.94 in 10.0 mi WSW 3.5 mph - N/A   Partly Cloudy
10:26 PM 60.8 °F 46.4 °F 59% 30.08 in 10.0 mi Calm Calm - N/A Thunderstorm Mostly Cloudy
10:36 PM 59.0 °F 46.4 °F 63% 30.09 in 10.0 mi West 3.5 mph - N/A Thunderstorm Mostly Cloudy
10:53 PM 60.1 °F 45.0 °F 57% 29.92 in 10.0 mi WSW 11.5 mph 18.4 mph N/A   Mostly Cloudy
11:53 PM 60.1 °F 43.0 °F 53% 29.92 in 10.0 mi WSW 6.9 mph - 0.00 in Rain Light Rain